Weather History for Lanai City, HI

Change the Weather History Date:

Thursday, May 23, 2013

  Actual Average Record
Temperature  
Mean Temperature 74 °F -  
Max Temperature 83 °F 80 °F 85 °F (1993)
Min Temperature 66 °F 63 °F 59 °F (1951)
Cooling Degree Days 10    
Growing Degree Days 24 (Base 50)    
Moisture  
Dew Point 67 °F    
Average Humidity 79    
Maximum Humidity 100    
Minimum Humidity 55    
Precipitation  
Precipitation 0.00 in - - ()
Sea Level Pressure  
Sea Level Pressure 30.04 in    
Wind  
Wind Speed 6 mph (NE)    
Max Wind Speed 18 mph    
Max Gust Speed 23 mph    
Visibility 9 miles    
Events      
Averages and records for this station are not official NWS values.
T = Trace of Precipitation, MM = Missing Value Source: NWS Daily Summary

Daily Weather History Graph

Daily Weather History Graph

Search for Another Location

Airport:

Trip Planner

Search our weather history database for the weather conditions in past years. The results will help you decide how hot, cold, wet, or windy it might be!

Date:

Astronomy

May. 23, 2013 Rise Set
Actual Time 5:47 AM HST 7:01 PM HST
Civil Twilight 5:23 AM HST 7:25 PM HST
Nautical Twilight 4:54 AM HST 7:54 PM HST
Astronomical Twilight 4:25 AM HST 8:24 PM HST
Moon 5:54 PM HST (5/23) 4:29 AM HST (5/23)
Length of Visible Light 14h 02m
Length of Day
13h 13m
Waxing Gibbous, 98% of the Moon is Illuminated
May 23
Waxing Gibbous
May 24
Full
May 31
Last Quarter
Jun 8
New
Jun 16
First Quarter

Hourly Weather History & Observations

Time (HST) Temp. Heat Index Dew Point Humidity Pressure Visibility Wind Dir Wind Speed Gust Speed Precip Events Conditions
12:56 AM 68.0 °F - 65.8 °F 93% 30.03 in 10.0 mi ENE 3.5 mph - N/A   Clear
1:56 AM 68.0 °F - 68.0 °F 100% 30.02 in 10.0 mi ENE 3.5 mph - N/A   Clear
2:56 AM 68.0 °F - 68.0 °F 100% 30.01 in 10.0 mi Calm Calm - N/A   Clear
3:43 AM 68.0 °F - 68.0 °F 100% 30.07 in 2.0 mi Calm Calm - N/A   Clear
3:56 AM 66.9 °F - 66.9 °F 100% 30.01 in 1.5 mi Calm Calm - N/A   Clear
4:01 AM 66.2 °F - 66.2 °F 100% 30.07 in 5.0 mi Calm Calm - N/A   Clear
4:56 AM 66.9 °F - 66.9 °F 100% 30.01 in 10.0 mi ENE 3.5 mph - N/A   Clear
5:56 AM 66.9 °F - 66.9 °F 100% 30.02 in 10.0 mi Calm Calm - N/A   Clear
6:56 AM 70.9 °F - 70.0 °F 97% 30.04 in 10.0 mi North 3.5 mph - N/A   Clear
7:56 AM 77.0 °F - 66.9 °F 71% 30.05 in 10.0 mi Variable 3.5 mph - N/A   Clear
8:56 AM 81.9 °F 83.5 °F 64.9 °F 56% 30.05 in 10.0 mi Variable 3.5 mph - N/A   Clear
9:20 AM 80.6 °F 83.9 °F 69.8 °F 70% 30.12 in 10.0 mi SW 6.9 mph - N/A   Mostly Cloudy
9:56 AM 77.9 °F - 68.9 °F 74% 30.05 in 10.0 mi SSW 3.5 mph - N/A   Mostly Cloudy
10:34 AM 77.0 °F - 69.8 °F 78% 30.12 in 10.0 mi South 6.9 mph - N/A   Mostly Cloudy
10:56 AM 78.8 °F - 69.8 °F 74% 30.11 in 10.0 mi South 8.1 mph - N/A   Overcast
11:45 AM 82.4 °F 85.4 °F 68.0 °F 62% 30.10 in 10.0 mi NNE 15.0 mph - N/A   Scattered Clouds
11:56 AM 81.9 °F 84.8 °F 68.0 °F 63% 30.04 in 10.0 mi NE 13.8 mph - N/A   Clear
12:56 PM 83.8 °F 87.0 °F 68.0 °F 59% 30.01 in 10.0 mi NE 18.4 mph 23.0 mph N/A   Clear
1:56 PM 82.9 °F 85.4 °F 66.9 °F 58% 30.00 in 10.0 mi NE 17.3 mph - N/A   Clear
2:56 PM 83.8 °F 86.0 °F 65.8 °F 55% 29.99 in 10.0 mi NE 17.3 mph - N/A   Clear
3:56 PM 81.9 °F 83.9 °F 65.8 °F 58% 29.98 in 10.0 mi NE 16.1 mph 23.0 mph N/A   Clear
4:56 PM 81.0 °F 83.3 °F 66.9 °F 62% 29.98 in 10.0 mi NE 18.4 mph - N/A   Partly Cloudy
5:56 PM 77.9 °F - 65.8 °F 66% 29.99 in 10.0 mi ENE 15.0 mph - N/A   Clear
6:56 PM 73.9 °F - 64.9 °F 73% 30.00 in 10.0 mi NE 16.1 mph 23.0 mph N/A   Clear
7:56 PM 72.9 °F - 66.9 °F 82% 30.01 in 10.0 mi East 6.9 mph - N/A   Clear
8:56 PM 72.0 °F - 65.8 °F 81% 30.03 in 10.0 mi East 8.1 mph - N/A   Partly Cloudy
9:56 PM 72.9 °F - 68.0 °F 85% 30.05 in 10.0 mi NNE 10.4 mph - N/A   Mostly Cloudy
10:12 PM 71.6 °F - 66.2 °F 83% 30.12 in 10.0 mi NNE 8.1 mph - N/A   Scattered Clouds
10:56 PM 70.9 °F - 66.9 °F 87% 30.06 in 10.0 mi NNE 6.9 mph - N/A   Partly Cloudy
11:56 PM 70.0 °F - 66.9 °F 90% 30.06 in 10.0 mi ENE 5.8 mph - N/A   Clear